星链-32030 (STARLINK-32030)

导读

STARLINK-32030是美国SpaceX公司星链星座的一员,于北京时间2024年10月15日发射入轨。星链星座依托低轨卫星组网,将地面通信技术搬入太空,通过相控阵窄波束、OFDM传输与星间激光链路实现低时延高带宽互联网服务。作为全球规模最大的低轨卫星互联网星座,它可为全球提供宽带接入,推动直连手机等新兴卫星应用落地,也引发全球对空间资源利用与外太空安全的广泛讨论。

基本信息
目录编号:
61513
目录名称:
STARLINK-32030
国际标识:
2024-183E
轨道中心:
EARTH
卫星名称:
星链-32030
卫星全名:
星链-32030 (STARLINK-32030)
卫星状态:
在轨 (已飞行611 天)
发射日期:
2024-10-15 UTC
国别 :
美国 (US)
星等 :
--
轨道信息
数据来源 国际轨道数据
星历时间: 2026-06-17T20:14:14+0800
12小时前
查看轨道信息
半长轴: 6853.388km
偏心率: 0.0001327
轨道倾角: 53.161°
近地点辐角 91.531°
升交点赤经 38.922°
平近点角 268.584°
近地点: 474.341km
远地点: 476.161km
周期: 94.106分钟
每日圈数: 15.301882
详细信息
固有亮度:
5
最大亮度:
2.5
卫星平台:
Starlink V1.0
覆盖范围:
全球
运营商:
太空探索技术公司
运营商所在国:
美国
制造商(研发单位):
太空探索技术公司
制造商所在国:
美国
使用方式:
暂无
卫星简介
Starlink 计划是 SpaceX 推出的全球卫星互联网项目,通过发射低轨道卫星,为全球尤其是偏远地区提供高速、低延迟的互联网服务。自 2019 年起,Starlink 已部署数千颗卫星,旨在缩小全球数字鸿沟,推动互联网普及。该项目还为军事、航空等行业提供通信支持,带来广泛经济效益。
2D轨道图
3D轨道图
轨道高度分析图
轨道倾角分析图
轨道综合分析图
查看轨道综合分析图